Location: Frizzleburg
(41.0764°N, 80.4548°W)
Time: 02:06:46
(UTC+00:00)

Daily predictions for brighter satellites

Satellite Brightness Start Highest point End
(mag) Time Altitude Azimuth Time Altitude Azimuth Time Altitude Azimuth
Cosmos 2082 4.5 00:00:21 10° NNW 00:05:47 52° WSW 00:11:12 10° S
Cosmos 2360 4.4 00:02:20 10° SSW 00:08:00 70° WNW 00:11:38 23° NNE
GPS 2-04 Rocket1 4.5 00:05:45 10° SW 00:07:20 19° SSW 00:07:20 19° SSW
Cosmos 1697 Rocket 3.7 00:03:37 10° SW 00:09:00 45° WNW 00:13:54 13° N
ATLAS 5 CENTAUR R/B 4.5 00:05:36 10° S 00:09:52 17° SSE 00:13:16 15° SE
ATLAS 5 CENTAUR R/B 4.1 00:04:57 10° NW 00:10:22 34° WSW 00:16:22 10° S
DMSP B5D1-3 4.4 00:10:36 32° NNE 00:13:03 87° ESE 00:18:11 10° SSW
Cosmos 2278 4.4 00:07:48 10° SW 00:13:20 52° WNW 00:17:33 17° N
SeaSat 1 3.8 00:09:13 10° S 00:13:46 38° WSW 00:18:21 10° NW
SL-8 R/B 4.3 00:09:10 10° SW 00:13:04 44° S 00:13:04 44° S
Meteor 1-26 Rocket 4.3 00:13:57 10° S 00:19:24 62° ESE 00:19:24 62° ESE
USA 215 3.7 00:21:12 40° NE 00:21:29 40° NNE 00:27:29 10° NW
Cosmos 1371 Rocket 4.5 00:30:43 10° NNW 00:35:48 57° WSW 00:37:21 40° SSW
Cosmos 1634 Rocket 4.0 00:41:47 10° N 00:47:58 75° W 00:48:43 67° SSW
SL-16 R/B 4.3 01:03:06 10° SSW 01:04:18 17° SSW 01:04:18 17° SSW
Cosmos 1980 Rocket 4.0 01:09:19 10° WSW 01:14:01 26° NW 01:15:14 24° NW
Cosmos 839 Rocket 4.5 09:07:32 61° NE 09:07:32 61° NE 09:12:39 10° NNE
CZ-3B R/B 4.4 09:17:11 10° S 09:17:39 11° S 09:18:54 10° SSE
Cosmos 2082 Rocket 3.5 09:31:15 29° N 09:31:15 29° N 09:34:03 10° NNE
Meteor 2-2 Rocket 4.5 09:28:44 60° NE 09:29:27 66° ENE 09:35:03 10° SSE
Cosmos 2112 Rocket 4.3 09:34:03 67° E 09:34:03 67° E 09:39:07 10° SSE
Lacrosse 5 3.4 09:40:20 25° NNE 09:40:20 25° NNE 09:42:52 10° NNE
ATLAS CENTAUR R/B 4.1 09:36:30 10° SSE 09:40:14 22° ESE 09:43:57 10° ENE
Cosmos 1680 Rocket 3.8 09:41:33 59° SSE 09:41:33 59° SSE 09:45:48 10° SSE
Cosmos 990 Rocket 3.9 09:47:19 77° SSE 09:47:39 82° ESE 09:52:52 10° NNE
CZ-2C R/B 2.3 09:46:19 10° NNE 09:51:07 83° E 09:51:07 83° E
COSMOS 2455 3.8 09:50:05 19° N 09:54:02 44° NE 09:59:45 10° SE
ASTEX 1 3.4 09:50:23 10° SSE 09:55:19 80° E 10:00:19 10° N
Cosmos 2151 4.3 09:51:45 10° SSE 09:55:45 39° E 09:59:47 10° NNE
MSX 4.0 09:51:40 10° N 09:56:25 52° NW 09:56:25 52° NW
Cosmos 2100 Rocket 4.4 09:54:26 10° S 10:00:30 61° E 10:06:34 10° NNE
Okean 3 Rocket 4.2 09:56:25 10° S 10:00:50 57° E 10:05:16 10° NNE
Cosmos 2360 Rocket 4.4 09:56:59 10° N 10:01:09 20° NE 10:05:18 10° E
SL-16 R/B 3.2 09:58:12 13° N 10:03:04 44° ENE 10:08:27 10° SE
SJ 16-02 2.0 10:06:13 43° N 10:06:13 43° N 10:09:16 10° NNE
Cosmos 1447 Rocket 4.4 09:59:05 10° N 10:05:27 75° W 10:11:44 10° S
BREEZE-M DEB (TANK) 3.0 10:07:34 55° ENE 10:07:34 55° ENE 10:11:29 10° ESE
CZ-4B R/B 4.0 10:02:50 10° NNE 10:07:21 87° WNW 10:11:49 10° SSW
Cosmos 1980 Rocket 2.2 10:07:23 53° WSW 10:07:30 53° WSW 10:12:59 10° S
COSMO-SKYMED 1 3.8 10:04:37 10° SE 10:08:40 40° ENE 10:12:45 10° N
Meteor 2-20 4.3 10:05:17 10° N 10:11:28 78° W 10:17:35 10° S
Cosmos 2322 Rocket 3.2 10:06:33 10° NNW 10:11:58 44° ENE 10:17:23 10° SE
STARLINK-25 4.5 10:10:36 31° S 10:12:10 47° SE 10:16:09 10° ENE
STARLINK-71 4.2 10:12:37 35° SSW 10:13:59 54° SE 10:18:02 10° ENE
STARLINK-80 4.5 10:16:03 34° N 10:16:03 34° N 10:18:46 10° NE
STARLINK-79 4.4 10:13:43 30° SSW 10:15:23 50° SE 10:19:24 10° ENE
NOSS 3-3 (A) 4.0 10:14:19 43° W 10:16:01 56° NW 10:22:29 10° NNE
NOSS 3-3 (C) 4.0 10:14:23 42° WSW 10:16:07 57° NW 10:22:35 10° NNE
BREEZE-M DEB (TANK) 3.3 10:16:38 41° NNE 10:16:38 41° NNE 10:19:02 10° E
STARLINK-78 4.3 10:15:22 30° SSW 10:17:06 52° SE 10:21:08 10° ENE
OAO 2 Rocket 4.1 10:17:25 34° SW 10:18:46 40° S 10:23:30 10° ESE
Cosmos 1892 2.5 10:16:31 10° S 10:20:18 89° E 10:24:06 10° N
STARLINK-49 4.2 10:18:33 29° SSW 10:20:24 56° SE 10:24:28 10° ENE
STARLINK-27 4.1 10:20:09 29° SSW 10:22:03 58° SE 10:26:07 10° ENE
Cosmos 1898 Rocket 3.7 10:22:48 42° W 10:23:34 46° WNW 10:28:39 10° N
STARLINK-74 4.1 10:21:45 28° SSW 10:23:43 60° SE 10:27:49 10° ENE
SL-4 R/B 3.6 10:22:11 26° NNW 10:24:04 35° NNE 10:28:29 10° E
STARLINK-39 4.0 10:23:23 28° SSW 10:25:24 62° SE 10:29:30 10° ENE
STARLINK 3.9 10:24:57 28° SSW 10:27:00 64° SE 10:31:07 10° ENE
STARLINK-42 3.8 10:25:48 29° SW 10:27:46 69° SE 10:31:53 10° NE
Cosmos 1484 Rocket 2.8 10:25:25 10° NNE 10:29:27 84° ESE 10:33:27 10° S
STARLINK-21 3.8 10:27:23 27° SW 10:29:32 68° SE 10:33:40 10° NE
Cosmos 2061 Rocket 4.3 10:25:00 10° S 10:31:13 71° E 10:37:24 10° NNE
STARLINK-45 3.6 10:30:24 30° SW 10:32:22 80° SE 10:36:31 10° NE
Cosmos 1937 Rocket 3.5 10:28:30 16° SW 10:32:25 52° WNW 10:37:26 10° N
Cosmos 2173 Rocket 3.9 10:27:51 10° S 10:34:08 79° W 10:40:22 10° N
STARLINK-76 3.7 10:32:58 25° SW 10:35:18 76° SE 10:39:28 10° NE
COBE Rocket 3.9 10:30:28 10° S 10:35:34 63° W 10:40:37 10° NNW
Abrixas rocket 2.4 10:35:01 43° SSW 10:35:41 58° SSE 10:38:40 10° ENE
BREEZE-M DEB (TANK) 1.6 10:36:15 52° S 10:36:15 52° S 10:38:15 10° SE
STARLINK 3.6 10:34:36 24° SW 10:36:59 79° SE 10:41:08 10° NE
STARLINK-32 3.6 10:36:13 24° SW 10:38:40 81° SE 10:42:49 10° NE
Cosmos 1825 3.1 10:35:39 10° S 10:39:17 50° E 10:42:57 10° NNE
STARLINK-40 3.6 10:37:49 23° SW 10:40:20 84° SE 10:44:29 10° NE
Okean O Rocket 2.6 10:36:17 10° NNE 10:40:31 49° E 10:44:43 10° S
STARLINK-44 3.6 10:39:27 22° SW 10:42:01 87° SE 10:46:11 10° NE
STARLINK-48 4.2 10:41:43 32° NW 10:42:12 33° NNW 10:45:47 10° NE
FENGYUN 3A 4.1 10:37:21 10° NNE 10:42:45 64° ESE 10:48:05 10° S
STARLINK-36 3.5 10:41:02 22° SW 10:43:40 89° SE 10:47:50 10° NE
Cosmos 2150 Rocket 4.2 10:39:58 10° SSW 10:45:26 83° ESE 10:50:53 10° NNE
METEOR-M 4.4 10:40:07 10° NNE 10:45:28 71° ESE 10:50:46 10° S
CZ-4B R/B 3.9 10:40:36 10° NNE 10:45:56 56° ESE 10:51:19 10° S
ATLAS 2AS CENTAUR R/B 2.9 10:41:57 10° NNW 10:49:37 82° NE 10:56:36 10° SE
STARLINK-35 3.5 10:47:22 19° SW 10:50:15 81° NW 10:54:25 10° NE
STARLINK-51 3.5 10:49:01 19° WSW 10:51:58 79° NW 10:56:07 10° NE
STARLINK-30 3.5 10:50:39 18° WSW 10:53:38 76° NW 10:57:48 10° NE
SJ-12 3.8 10:50:11 10° N 10:54:20 70° WNW 10:58:26 10° SSW
STARLINK-33 3.5 10:52:13 18° WSW 10:55:16 74° NW 10:59:26 10° NE
SKYMED 2 3.6 10:52:28 10° S 10:56:44 59° W 11:01:02 10° NNW
STARLINK-50 3.5 10:53:48 17° WSW 10:56:56 72° NW 11:01:04 10° NE
BREEZE-M DEB (TANK) 3.5 10:47:54 16° WNW 10:57:31 85° NNE 11:01:06 10° ESE
Cosmos 1151 Rocket 2.9 10:53:31 10° N 10:57:55 80° W 11:02:15 10° S
NOAA 6 4.3 10:52:50 10° NNE 10:57:58 72° ESE 11:03:03 10° S
COSMOS 2487 2.2 10:56:24 10° SSW 10:59:50 74° WNW 11:03:18 10° NNE
STARLINK-56 3.6 10:56:59 16° WSW 11:00:14 68° NW 11:04:22 10° NE
Cosmos 1328 Rocket 3.4 10:56:05 10° NNW 11:00:24 69° W 11:04:40 10° S
Gbstr 26 Del rocket 4.1 10:59:15 19° NW 11:00:26 22° NNW 11:03:26 10° NE
Cosmos 1515 Rocket 3.7 10:57:36 10° N 11:01:57 74° E 11:06:16 10° SSE
Starlink (trailer) 3.6 10:58:46 15° WSW 11:02:05 66° NW 11:06:13 10° NE
OAO 3 Rocket 4.2 11:00:04 15° WSW 11:03:34 37° S 11:07:56 10° ESE
STARLINK-38 3.6 11:00:13 15° WSW 11:03:35 64° NW 11:07:43 10° NE
STARLINK-26 3.7 11:00:45 17° WSW 11:03:44 56° NW 11:07:46 10° NE
PAYLOAD B 4.1 10:58:20 10° N 11:03:50 76° WNW 11:09:18 10° SSW
Cosmos 2346 Rocket 4.4 10:58:05 10° N 11:04:12 89° E 11:10:14 10° S
Cosmos 1743 Rocket 3.9 11:00:00 10° S 11:04:16 68° E 11:08:35 10° NNE
STARLINK-65 3.6 11:01:51 14° WSW 11:05:18 62° NW 11:09:25 10° NE
STARLINK-67 4.2 11:05:11 14° NNW 11:06:51 25° NNE 11:09:07 10° E
STARLINK-61 4.1 11:04:45 19° W 11:07:15 40° NNW 11:11:05 10° NE
STARLINK-69 3.7 11:06:40 13° WSW 11:10:16 56° NNW 11:14:21 10° NE
STARLINK-66 3.7 11:08:16 12° WSW 11:11:58 55° NW 11:16:03 10° NE
STARLINK-41 3.8 11:09:47 12° WSW 11:13:33 54° NNW 11:17:38 10° NE
Cosmos 2082 Rocket 4.0 11:13:09 11° NW 11:13:38 11° NW 11:15:22 10° NNW
STARLINK-64 3.8 11:11:27 11° WSW 11:15:14 52° NNW 11:19:18 10° NE
Cosmos 372 Rocket 4.0 11:10:30 10° SW 11:15:33 55° WNW 11:20:36 10° N
STARLINK-70 3.8 11:13:00 11° WSW 11:16:53 51° NNW 11:20:57 10° NE
Cosmos 1459 Rocket 4.5 11:11:51 10° SW 11:17:29 36° WNW 11:23:14 10° N
CZ-4B DEB 4.4 11:12:32 10° N 11:17:49 50° WNW 11:23:05 10° SW
STARLINK-68 3.9 11:14:49 11° WSW 11:18:41 47° NNW 11:22:42 10° NE
ATLAS CENTAUR R/B 2.0 11:14:10 10° SW 11:18:55 49° NW 11:23:36 10° NNE
STARLINK-58 3.9 11:16:05 10° WSW 11:20:05 48° NNW 11:24:06 10° NE
Cosmos 1408 Rocket 4.0 11:17:40 10° SW 11:21:39 36° WNW 11:25:40 10° N
STARLINK-62 4.0 11:18:00 10° WSW 11:21:59 45° NNW 11:25:59 10° NE
Lacrosse 5 3.8 11:19:33 10° NW 11:22:25 15° NNW 11:25:18 10° NNE
STARLINK-63 4.0 11:19:35 10° WSW 11:23:35 45° NNW 11:27:34 10° NE
Cosmos 1725 Rocket 4.0 11:17:37 10° SSW 11:23:47 60° W 11:30:02 10° N
STARLINK 3.9 11:21:02 10° WSW 11:25:02 48° NNW 11:29:04 10° NE
Shenzhou-11 Module 2.3 11:23:16 14° W 11:25:22 44° SSW 11:27:58 10° SE
Cosmos 2016 Rocket 4.3 11:20:08 10° SSW 11:26:05 46° WNW 11:32:08 10° N
Cosmos 1933 3.3 11:22:05 10° NNW 11:26:05 67° W 11:30:02 10° S
Cosmos 2237 4.3 11:20:33 10° NNW 11:26:19 83° ENE 11:32:00 10° SSE
Cosmos 2298 Rocket 4.5 11:21:36 10° SW 11:26:33 39° WNW 11:31:32 10° N
STARLINK-72 4.0 11:22:51 10° WSW 11:26:50 45° NNW 11:30:50 10° NE
Cosmos 1238 Rocket 4.1 11:21:16 10° S 11:27:55 86° W 11:34:04 10° N
Cosmos 1500 Rocket 3.5 11:23:38 10° SSW 11:28:05 72° W 11:32:32 10° N
CZ-2C R/B 4.1 11:27:06 10° NW 11:28:39 11° WNW 11:30:12 10° WNW
Cosmos 1408 3.7 11:25:47 10° SW 11:28:49 24° WNW 11:31:52 10° NNW
STARLINK-59 4.1 11:26:20 10° WSW 11:30:16 41° NNW 11:34:13 10° NE
STARLINK-57 4.1 11:28:03 10° W 11:31:59 40° NNW 11:35:55 10° NE
Cosmos 2151 4.5 11:30:24 10° WSW 11:33:13 17° WNW 11:36:03 10° NNW
STARLINK-28 4.2 11:31:24 10° W 11:35:17 38° NNW 11:39:11 10° NE
Cosmos 1048 Rocket 4.1 11:30:37 10° NNW 11:35:59 71° WSW 11:41:17 10° S
STARLINK-53 4.2 11:32:11 10° W 11:36:05 38° NNW 11:39:59 10° NE
STARLINK-75 4.4 11:33:02 10° W 11:36:51 35° NNW 11:40:41 10° NE
COSMOS 2428 4.1 11:32:27 10° N 11:37:45 38° ENE 11:43:02 10° SE
Lacrosse 5 rocket 3.2 11:35:20 10° NNW 11:37:51 17° NNE 11:40:20 10° ENE
STARLINK-54 4.3 11:34:46 10° W 11:38:38 36° NNW 11:42:29 10° NE
Cosmos 1833 4.2 11:33:32 10° SSW 11:39:06 65° WNW 11:44:43 10° NNE
COSMOS 2455 3.7 11:34:35 10° NW 11:39:46 31° WSW 11:44:56 10° SSW
ALOS 3.0 11:35:55 10° N 11:40:03 32° WNW 11:44:10 10° SW
Sich 1 4.3 11:37:47 10° SSE 11:41:52 46° E 11:45:57 10° NNE
STARLINK-37 4.4 11:39:25 10° W 11:43:14 34° NNW 11:47:05 10° NE
STARLINK-55 4.4 11:39:43 10° W 11:43:32 35° NNW 11:47:22 10° NE
COSMO-SKYMED 1 4.1 11:42:03 10° SW 11:44:59 18° W 11:47:56 10° NW
STARLINK-24 4.4 11:41:21 10° W 11:45:10 34° NNW 11:48:58 10° NE
STARLINK-34 4.4 11:41:32 10° W 11:45:18 33° NNW 11:49:06 10° NE
Cosmos 2360 Rocket 2.3 11:40:01 10° NNW 11:45:39 66° WSW 11:51:14 10° S
SMAP 3.2 11:41:52 10° NNE 11:46:34 84° ESE 11:51:13 10° SSW
Tsikada Rocket 4.3 11:40:27 10° NNW 11:46:35 50° W 11:52:38 10° SSW
SL-16 R/B 3.2 11:42:16 10° NW 11:46:53 26° WSW 11:51:28 10° SSW
